Weather in Beja

Portugal     38°00′46″N   7°52′06″W
temp.,
°C
wind,
m/s
gust,
m/s
humid.,
%
clouds,
%
prec.,
mm/h
press.,
hPa
HPBL,
m
22 january, sat
sat2200:00+5e22750 0.0 102512
03:00+4ene22770 0.0 102511
06:00+3ne22720 0.0 102515
09:00+5ene23605 0.0 102698
12:00+13e345467 0.0 1026729
15:00+16e3443100 0.0 10231199
18:00+10ese2264100 0.0 102311
21:00+8ene337799 0.0 102432
23 january, sun
sun2300:00+6ene338552 0.0 102436
03:00+5ne3385100 0.0 102333
06:00+4ne228180 0.0 102327
09:00+7ne236957 0.0 102486
12:00+14e234983 0.0 1024584
15:00+16se114852 0.0 1022944
18:00+11ne00688 0.0 102210
21:00+9nne11745 0.0 102410
24 january, mon
mon2400:00+7ne11745 0.0 102410
03:00+6nne11775 0.0 102410
06:00+5ne11810 0.0 102410
09:00+7ne12730 0.0 102685
12:00+14nne22500 0.0 1026603
15:00+16nnw12410 0.0 10241189
18:00+10nne33620 0.0 102520
21:00+7ne22820 0.0 102615
25 january, tue
tue2500:00+6ne22880 0.0 102810
03:00+6ne118833 0.0 102810
06:00+8ne2379100 0.0 102782
09:00+9ne357386 0.0 1029174
12:00+15e34484 0.0 10281183
15:00+17ne454284 0.0 10261797
18:00+13n5954100 0.0 1026320
21:00+9ne34665 0.0 102863
26 january, wed
wed2600:00+7ne46725 0.0 102895
03:00+6ne467464 0.0 102792
06:00+8ne3767100 0.0 1026148
09:00+9ne476494 0.0 1027206
12:00+16e3545100 0.0 1026954
15:00+17se344498 0.0 10241825
18:00+13ene015929 0.0 102510
21:00+11nne2366100 0.0 102649